Weather in Bagana

Russia / Samara Oblast     54°21′19″N   51°24′20″E
temp.,
°C
wind,
m/s
gust,
m/s
humid.,
%
clouds,
%
prec.,
mm/h
press.,
hPa
HPBL,
m
16 may, sun
sun1601:00+18sse22555 0.0 102011
04:00+17se22565 0.0 102012
07:00+20se27564 0.0 1020191
10:00+25s69413 0.0 1020517
13:00+29ssw68310 0.0 10192293
16:00+30ssw58287 0.0 10183604
19:00+26s354889 0.0 101680
22:00+22sse5115081 0.0 1019269
17 may, mon
mon1701:00+18s33615 0.0 101831
04:00+17ssw23615 0.0 101923
07:00+20s146063 0.0 1020157
10:00+24s464671 0.0 1019357
13:00+30s46325 0.0 10191513
16:00+30sw443175 0.0 10182213
19:00+26sse22457 0.0 101817
22:00+20ene115427 0.0 101912
18 may, tue
tue1801:00+20se115317 0.0 101811
04:00+18nne225769 0.0 101811
07:00+22ene12552 0.0 101891
10:00+27ese22420 0.0 1018593
13:00+30w11272 0.0 10172831
16:00+30nnw112416 0.0 10173149
19:00+23e5105992 0.1 1017276
22:00+19ene4126016 0.3 1018196
19 may, wed
wed1901:00+18e411737 0.0 1018275
04:00+15e3107313 0.0 1019209
07:00+18e59682 0.0 1019308
10:00+23e67504 0.0 1019863
13:00+26ese68410 0.0 10181655
16:00+26se67390 0.0 10181889
19:00+23ese59530 0.0 1018277
22:00+19ese513560 0.0 1018278
20 may, thu
thu2001:00+16se414638 0.0 1019305
04:00+15se513599 0.0 1019317
07:00+16se614605 0.0 1020481
10:00+21se810465 0.0 1019904
13:00+23se79370 0.0 10191528
16:00+24sse78350 0.0 10181866
19:00+21se595014 0.0 1017297
22:00+17ese4115579 0.0 1017192